Location: Eymir
(36.7333°N, 29.7833°E)
Time: 17:56:55
(UTC+00:00)

ARIANE 5 R/B - Pass Details

Date: 14 January 2026
Orbit: 746 x 793 km, 98.8° (Epoch: 17 February)

Event Time Altitude Azimuth Distance (km) Brightness Sun altitude
Rises 04:00:09 0° 23° (NNE) 3,257 5.8 -14.4°
Reaches altitude 10° 04:02:40 10° 32° (NNE) 2,317 5.2 -13.9°
Maximum altitude 04:07:19 35° 98° (E) 1,214 4.3 -13.0°
Drops below altitude 10° 04:11:53 10° 164° (SSE) 2,276 5.4 -12.2°
Sets 04:14:20 0° 173° (S) 3,190 6.1 -11.7°
